Weather History for Sacramento / Mc Clellan, CA

Change the Weather History Date:

Saturday, February 23, 2013

  Actual Average (KMHR) Record (KMHR)
Temperature  
Mean Temperature 49 °F -  
Max Temperature 59 °F 57 °F 140 °F (2006)
Min Temperature 39 °F 39 °F 32 °F (2011)
Degree Days  
Heating Degree Days 16    
Moisture  
Dew Point 32 °F    
Average Humidity 57    
Maximum Humidity 93    
Minimum Humidity 27    
Precipitation  
Precipitation 0.00 in - - ()
Sea Level Pressure  
Sea Level Pressure 30.19 in    
Wind  
Wind Speed 12 mph (NNW)    
Max Wind Speed 21 mph    
Max Gust Speed 29 mph    
Visibility 10 miles    
Events      
Averages and records for this station are not official NWS values.
T = Trace of Precipitation, MM = Missing Value Source: NWS Daily Summary

Daily Weather History Graph

Daily Weather History Graph

Search for Another Location

Airport:

Trip Planner

Search our weather history database for the weather conditions in past years. The results will help you decide how hot, cold, wet, or windy it might be!

Date:

Astronomy

Feb. 23, 2013 Rise Set
Actual Time 6:45 AM PST 5:52 PM PST
Civil Twilight 6:18 AM PST 6:19 PM PST
Nautical Twilight 5:48 AM PST 6:50 PM PST
Astronomical Twilight 5:17 AM PST 7:21 PM PST
Moon 4:08 PM PST (2/23) 5:10 AM PST (2/23)
Length of Visible Light 12h 00m
Length of Day
11h 06m
Waxing Gibbous, 96% of the Moon is Illuminated
Feb 23
Waxing Gibbous
Feb 25
Full
Mar 4
Last Quarter
Mar 11
New
Mar 19
First Quarter

Hourly Weather History & Observations

Time (PST) Temp. Windchill Dew Point Humidity Pressure Visibility Wind Dir Wind Speed Gust Speed Precip Events Conditions
12:10 AM 48.2 °F - 39.2 °F 71% 30.18 in 10.0 mi SE 13.8 mph - N/A   Mostly Cloudy
12:30 AM 48.2 °F - 39.2 °F 71% 30.17 in 10.0 mi SE 11.5 mph - N/A   Partly Cloudy
12:50 AM 48.2 °F - 39.2 °F 71% 30.16 in 10.0 mi SSE 13.8 mph - N/A   Clear
1:10 AM 48.2 °F - 41.0 °F 76% 30.16 in 10.0 mi SSE 15.0 mph 20.7 mph N/A   Clear
1:30 AM 48.2 °F - 41.0 °F 76% 30.16 in 10.0 mi SSE 12.7 mph 19.6 mph N/A   Clear
1:50 AM 48.2 °F - 41.0 °F 76% 30.16 in 10.0 mi SSE 12.7 mph - N/A   Clear
2:10 AM 46.4 °F 40.7 °F 41.0 °F 81% 30.16 in 10.0 mi SSE 12.7 mph - N/A   Clear
2:30 AM 46.4 °F 40.4 °F 41.0 °F 81% 30.15 in 10.0 mi South 13.8 mph - N/A   Clear
2:50 AM 46.4 °F 40.7 °F 41.0 °F 81% 30.16 in 10.0 mi SSE 12.7 mph - N/A   Clear
3:10 AM 46.4 °F 41.1 °F 41.0 °F 81% 30.15 in 10.0 mi SSE 11.5 mph - N/A   Clear
3:30 AM 44.6 °F 38.4 °F 41.0 °F 87% 30.16 in 9.0 mi SE 12.7 mph - N/A   Clear
3:50 AM 44.6 °F 38.1 °F 41.0 °F 87% 30.15 in 10.0 mi SSE 13.8 mph - N/A   Clear
4:10 AM 44.6 °F 39.2 °F 39.2 °F 81% 30.15 in 10.0 mi SSE 10.4 mph - N/A   Clear
4:30 AM 44.6 °F 39.2 °F 39.2 °F 81% 30.14 in 10.0 mi SSE 10.4 mph - N/A   Clear
4:50 AM 44.6 °F 39.7 °F 39.2 °F 81% 30.15 in 10.0 mi SSE 9.2 mph - N/A   Clear
5:10 AM 42.8 °F 37.5 °F 39.2 °F 87% 30.16 in 10.0 mi ESE 9.2 mph - N/A   Clear
5:30 AM 44.6 °F 39.7 °F 39.2 °F 81% 30.16 in 10.0 mi ESE 9.2 mph - N/A   Clear
5:50 AM 41.0 °F 37.1 °F 39.2 °F 93% 30.17 in 10.0 mi SE 5.8 mph - N/A   Clear
6:10 AM 41.0 °F 39.0 °F 39.2 °F 93% 30.18 in 10.0 mi SE 3.5 mph - N/A   Clear
6:30 AM 41.0 °F - 39.2 °F 93% 30.19 in 9.0 mi Calm Calm - N/A   Clear
6:50 AM 41.0 °F - 39.2 °F 93% 30.19 in 7.0 mi Calm Calm - N/A   Clear
7:10 AM 39.2 °F 37.0 °F 37.4 °F 93% 30.20 in 7.0 mi WNW 3.5 mph - N/A   Clear
7:30 AM 41.0 °F 37.1 °F 39.2 °F 93% 30.22 in 7.0 mi NW 5.8 mph - N/A   Clear
7:50 AM 42.8 °F 39.3 °F 39.2 °F 87% 30.23 in 9.0 mi NW 5.8 mph - N/A   Clear
8:10 AM 44.6 °F 39.7 °F 41.0 °F 87% 30.24 in 8.0 mi NNW 9.2 mph - N/A   Clear
8:30 AM 46.4 °F 41.9 °F 41.0 °F 81% 30.25 in 8.0 mi NNW 9.2 mph - N/A   Scattered Clouds
8:50 AM 48.2 °F - 41.0 °F 76% 30.25 in 8.0 mi NW 13.8 mph - N/A   Mostly Cloudy
9:10 AM 48.2 °F - 41.0 °F 76% 30.25 in 9.0 mi NW 16.1 mph - N/A   Mostly Cloudy
9:30 AM 50.0 °F - 39.2 °F 66% 30.25 in 9.0 mi NW 17.3 mph 24.2 mph N/A   Mostly Cloudy
9:50 AM 50.0 °F - 35.6 °F 58% 30.25 in 9.0 mi NW 18.4 mph 24.2 mph N/A   Partly Cloudy
10:10 AM 51.8 °F - 32.0 °F 47% 30.26 in 10.0 mi NNW 17.3 mph 21.9 mph N/A   Clear
10:30 AM 53.6 °F - 32.0 °F 44% 30.25 in 10.0 mi NW 17.3 mph 21.9 mph N/A   Clear
10:50 AM 53.6 °F - 30.2 °F 41% 30.25 in 10.0 mi NNW 18.4 mph 23.0 mph N/A   Clear
11:10 AM 53.6 °F - 28.4 °F 38% 30.25 in 10.0 mi NNW 17.3 mph 24.2 mph N/A   Clear
11:30 AM 55.4 °F - 28.4 °F 36% 30.24 in 10.0 mi NNW 18.4 mph 21.9 mph N/A   Clear
11:50 AM 55.4 °F - 28.4 °F 36% 30.24 in 10.0 mi NW 15.0 mph 18.4 mph N/A   Clear
12:10 PM 57.2 °F - 26.6 °F 31% 30.23 in 10.0 mi North 18.4 mph 24.2 mph N/A   Clear
12:30 PM 57.2 °F - 26.6 °F 31% 30.21 in 10.0 mi NNW 17.3 mph 28.8 mph N/A   Clear
12:50 PM 57.2 °F - 24.8 °F 29% 30.21 in 10.0 mi NNW 16.1 mph 23.0 mph N/A   Clear
1:10 PM 57.2 °F - 26.6 °F 31% 30.19 in 10.0 mi NNW 20.7 mph - N/A   Clear
1:30 PM 57.2 °F - 26.6 °F 31% 30.19 in 10.0 mi NNW 15.0 mph 23.0 mph N/A   Clear
1:50 PM 57.2 °F - 26.6 °F 31% 30.18 in 10.0 mi NW 17.3 mph 25.3 mph N/A   Clear
2:10 PM 57.2 °F - 26.6 °F 31% 30.18 in 10.0 mi NNW 17.3 mph 24.2 mph N/A   Clear
2:30 PM 57.2 °F - 26.6 °F 31% 30.17 in 10.0 mi NNW 17.3 mph 21.9 mph N/A   Clear
2:50 PM 59.0 °F - 26.6 °F 29% 30.16 in 10.0 mi NW 17.3 mph 24.2 mph N/A   Clear
3:10 PM 59.0 °F - 24.8 °F 27% 30.16 in 10.0 mi NNW 20.7 mph 27.6 mph N/A   Clear
3:30 PM 57.2 °F - 23.0 °F 27% 30.16 in 10.0 mi NNW 20.7 mph - N/A   Clear
3:50 PM 57.2 °F - 24.8 °F 29% 30.17 in 10.0 mi NNW 15.0 mph 23.0 mph N/A   Clear
4:10 PM 57.2 °F - 24.8 °F 29% 30.16 in 10.0 mi NW 16.1 mph 20.7 mph N/A   Clear
4:30 PM 57.2 °F - 24.8 °F 29% 30.16 in 10.0 mi NNW 13.8 mph 20.7 mph N/A   Clear
4:50 PM 57.2 °F - 24.8 °F 29% 30.16 in 10.0 mi NNW 13.8 mph 20.7 mph N/A   Clear
5:10 PM 55.4 °F - 24.8 °F 31% 30.17 in 10.0 mi NNW 13.8 mph - N/A   Clear
5:30 PM 55.4 °F - 24.8 °F 31% 30.18 in 10.0 mi NNW 11.5 mph - N/A   Clear
5:50 PM 53.6 °F - 24.8 °F 33% 30.18 in 10.0 mi NNW 9.2 mph - N/A   Clear
6:10 PM 53.6 °F - 24.8 °F 33% 30.19 in 10.0 mi NNW 8.1 mph - N/A   Clear
6:30 PM 51.8 °F - 24.8 °F 35% 30.20 in 10.0 mi NNW 8.1 mph - N/A   Clear
6:50 PM 48.2 °F - 24.8 °F 40% 30.19 in 10.0 mi NW 5.8 mph - N/A   Clear
7:10 PM 50.0 °F - 26.6 °F 40% 30.19 in 10.0 mi NNW 8.1 mph - N/A   Clear
7:30 PM 48.2 °F - 26.6 °F 43% 30.19 in 10.0 mi North 10.4 mph - N/A   Clear
7:50 PM 48.2 °F - 26.6 °F 43% 30.20 in 10.0 mi North 13.8 mph - N/A   Clear
8:10 PM 48.2 °F - 26.6 °F 43% 30.19 in 10.0 mi North 13.8 mph - N/A   Clear
8:30 PM 48.2 °F - 26.6 °F 43% 30.19 in 10.0 mi North 12.7 mph - N/A   Clear
8:50 PM 48.2 °F - 26.6 °F 43% 30.20 in 10.0 mi North 10.4 mph - N/A   Clear
9:10 PM 44.6 °F 39.7 °F 26.6 °F 49% 30.20 in 10.0 mi NNW 9.2 mph - N/A   Clear
9:30 PM 42.8 °F 38.6 °F 28.4 °F 57% 30.21 in 10.0 mi NNW 6.9 mph - N/A   Clear
9:50 PM 42.8 °F 37.0 °F 26.6 °F 53% 30.21 in 10.0 mi NNW 10.4 mph - N/A   Clear
10:10 PM 42.8 °F 37.0 °F 26.6 °F 53% 30.21 in 10.0 mi NNW 10.4 mph - N/A   Clear
10:30 PM 41.0 °F 34.7 °F 26.6 °F 57% 30.21 in 10.0 mi NNW 10.4 mph - N/A   Clear
10:50 PM 42.8 °F 37.0 °F 26.6 °F 53% 30.21 in 10.0 mi NNW 10.4 mph - N/A   Clear
11:10 PM 42.8 °F 37.5 °F 26.6 °F 53% 30.21 in 10.0 mi NNW 9.2 mph - N/A   Clear
11:30 PM 41.0 °F 35.2 °F 26.6 °F 57% 30.21 in 10.0 mi NNW 9.2 mph - N/A   Clear
11:50 PM 41.0 °F 33.1 °F 24.8 °F 53% 30.21 in 10.0 mi NNW 15.0 mph - N/A   Clear